Weather History for College Park, MD

Change the Weather History Date:

Friday, February 28, 2014

  Actual Average Record
Temperature  
Mean Temperature 21 °F -  
Max Temperature 29 °F 49 °F 73 °F (1977)
Min Temperature 13 °F 28 °F 13 °F (1950)
Degree Days  
Heating Degree Days 44    
Moisture  
Dew Point -6 °F    
Average Humidity 33    
Maximum Humidity 64    
Minimum Humidity 15    
Precipitation  
Precipitation 0.00 in - - ()
Sea Level Pressure  
Sea Level Pressure 30.36 in    
Wind  
Wind Speed 8 mph (North)    
Max Wind Speed 18 mph    
Max Gust Speed 26 mph    
Visibility 10 miles    
Events      
Averages and records for this station are not official NWS values.
T = Trace of Precipitation, MM = Missing Value Source: NWS Daily Summary

Daily Weather History Graph

Daily Weather History Graph

Search for Another Location

Airport:

Trip Planner

Search our weather history database for the weather conditions in past years. The results will help you decide how hot, cold, wet, or windy it might be!

Date:

Astronomy

Feb. 28, 2014 Rise Set
Actual Time 6:41 AM EST 5:59 PM EST
Civil Twilight 6:14 AM EST 6:26 PM EST
Nautical Twilight 5:43 AM EST 6:57 PM EST
Astronomical Twilight 5:13 AM EST 7:28 PM EST
Moon 5:54 AM EST (2/28) 5:33 PM EST (2/28)
Length of Visible Light 12h 11m
Length of Day
11h 17m
Waning Crescent, 1% of the Moon is Illuminated
Feb 28
Waning Crescent
Mar 1
New
Mar 8
First Quarter
Mar 16
Full
Mar 23
Last Quarter

Hourly Weather History & Observations

Time (EST) Temp. Windchill Dew Point Humidity Pressure Visibility Wind Dir Wind Speed Gust Speed Precip Events Conditions
12:00 AM 20.1 °F 5.0 °F 0.3 °F 42% 30.15 in 10.0 mi NNW 18.4 mph 24.2 mph N/A   Clear
12:20 AM 19.4 °F 6.0 °F -1.5 °F 40% 30.17 in 10.0 mi NNW 13.8 mph 21.9 mph N/A   Clear
12:40 AM 19.0 °F 4.5 °F -3.3 °F 37% 30.18 in 10.0 mi NNW 16.1 mph 24.2 mph N/A   Clear
1:00 AM 18.5 °F 3.3 °F -3.8 °F 37% 30.18 in 10.0 mi NNW 17.3 mph 26.5 mph N/A   Clear
1:20 AM 18.3 °F 5.2 °F -4.4 °F 37% 30.20 in 10.0 mi North 12.7 mph 19.6 mph N/A   Clear
1:40 AM 18.0 °F 4.8 °F -4.0 °F 38% 30.21 in 10.0 mi NNW 12.7 mph 20.7 mph N/A   Clear
2:00 AM 17.6 °F 5.0 °F -3.6 °F 39% 30.22 in 10.0 mi North 11.5 mph 19.6 mph N/A   Clear
2:20 AM 17.4 °F 4.7 °F -2.6 °F 41% 30.23 in 10.0 mi NNW 11.5 mph 18.4 mph N/A   Clear
2:40 AM 16.7 °F 6.2 °F -4.0 °F 40% 30.24 in 10.0 mi North 8.1 mph - N/A   Clear
3:00 AM 16.3 °F 1.6 °F -5.3 °F 38% 30.24 in 10.0 mi North 15.0 mph 18.4 mph N/A   Clear
3:20 AM 15.8 °F 4.2 °F -6.3 °F 37% 30.25 in 10.0 mi NNW 9.2 mph - N/A   Clear
3:40 AM 15.6 °F 4.0 °F -6.3 °F 37% 30.27 in 10.0 mi North 9.2 mph - N/A   Clear
4:00 AM 15.4 °F 3.0 °F -5.8 °F 39% 30.27 in 10.0 mi North 10.4 mph - N/A   Clear
4:20 AM 15.3 °F 5.4 °F -6.3 °F 38% 30.28 in 10.0 mi North 6.9 mph - N/A   Clear
4:40 AM 14.9 °F 6.1 °F -6.3 °F 39% 30.30 in 10.0 mi North 5.8 mph - N/A   Clear
5:00 AM 14.4 °F 5.5 °F -5.1 °F 42% 30.31 in 10.0 mi North 5.8 mph - N/A   Clear
5:20 AM 14.4 °F 6.9 °F -4.5 °F 43% 30.33 in 10.0 mi North 4.6 mph - N/A   Clear
5:40 AM 14.0 °F 5.1 °F -4.9 °F 43% 30.35 in 10.0 mi North 5.8 mph - N/A   Clear
6:00 AM 14.0 °F 2.9 °F -6.0 °F 41% 30.35 in 10.0 mi North 8.1 mph - N/A   Clear
6:20 AM 13.6 °F 6.0 °F -5.6 °F 42% 30.36 in 10.0 mi NNW 4.6 mph - N/A   Clear
6:40 AM 13.3 °F 4.2 °F -5.4 °F 43% 30.37 in 10.0 mi North 5.8 mph - N/A   Clear
7:00 AM 13.5 °F 5.8 °F -5.6 °F 43% 30.38 in 10.0 mi NNW 4.6 mph - N/A   Clear
7:20 AM 14.5 °F 7.1 °F -5.1 °F 42% 30.39 in 10.0 mi North 4.6 mph - N/A   Clear
7:40 AM 14.9 °F 4.0 °F -5.6 °F 40% 30.40 in 10.0 mi North 8.1 mph - N/A   Clear
8:00 AM 15.4 °F 5.6 °F -6.3 °F 38% 30.41 in 10.0 mi North 6.9 mph - N/A   Clear
8:20 AM 16.3 °F 5.7 °F -8.0 °F 34% 30.42 in 10.0 mi NNW 8.1 mph - N/A   Clear
8:40 AM 16.7 °F 8.3 °F -9.0 °F 32% 30.42 in 10.0 mi NNW 5.8 mph - N/A   Clear
9:00 AM 17.4 °F 8.0 °F -8.7 °F 31% 30.43 in 10.0 mi NNW 6.9 mph - N/A   Clear
9:20 AM 18.1 °F 10.0 °F -9.8 °F 29% 30.44 in 10.0 mi North 5.8 mph - N/A   Clear
9:40 AM 19.0 °F 10.0 °F -10.3 °F 27% 30.44 in 10.0 mi NE 6.9 mph - N/A   Clear
10:00 AM 19.9 °F 13.4 °F -9.9 °F 26% 30.44 in 10.0 mi NNE 4.6 mph - N/A   Clear
10:20 AM 20.1 °F 12.3 °F -11.0 °F 25% 30.45 in 10.0 mi North 5.8 mph - N/A   Clear
10:40 AM 21.0 °F 13.4 °F -10.7 °F 24% 30.45 in 10.0 mi ENE 5.8 mph - N/A   Clear
11:00 AM 21.4 °F 16.6 °F -10.7 °F 24% 30.45 in 10.0 mi NW 3.5 mph - N/A   Clear
11:20 AM 21.9 °F 17.2 °F -10.1 °F 24% 30.44 in 10.0 mi NNE 3.5 mph - N/A   Clear
11:40 AM 23.2 °F 18.7 °F -11.9 °F 21% 30.44 in 10.0 mi West 3.5 mph - N/A   Clear
12:00 PM 23.2 °F 17.2 °F -11.9 °F 21% 30.43 in 10.0 mi NE 4.6 mph - N/A   Clear
12:20 PM 24.8 °F 20.5 °F -9.6 °F 22% 30.42 in 10.0 mi ENE 3.5 mph - N/A   Clear
12:40 PM 25.0 °F 20.7 °F -10.7 °F 21% 30.42 in 10.0 mi NNE 3.5 mph - N/A   Clear
1:00 PM 25.5 °F 21.3 °F -9.2 °F 22% 30.41 in 10.0 mi NW 3.5 mph - N/A   Clear
1:20 PM 26.4 °F - -9.0 °F 21% 30.40 in 10.0 mi Calm Calm - N/A   Clear
1:40 PM 26.6 °F 22.6 °F -8.5 °F 21% 30.39 in 10.0 mi NNE 3.5 mph - N/A   Clear
2:00 PM 27.5 °F - -9.9 °F 19% 30.38 in 10.0 mi Calm Calm - N/A   Clear
2:20 PM 28.0 °F 22.8 °F -9.6 °F 19% 30.38 in 10.0 mi NW 4.6 mph - N/A   Clear
2:40 PM 28.0 °F 24.2 °F -11.9 °F 17% 30.37 in 10.0 mi NNE 3.5 mph - N/A   Clear
3:00 PM 28.6 °F 23.5 °F -13.4 °F 16% 30.37 in 10.0 mi South 4.6 mph - N/A   Clear
3:20 PM 29.3 °F - -11.4 °F 17% 30.38 in 10.0 mi Calm Calm - N/A   Clear
3:40 PM 29.3 °F - -13.0 °F 15% 30.38 in 10.0 mi Calm Calm - N/A   Clear
4:20 PM 29.5 °F - -11.4 °F 17% 30.37 in 10.0 mi Calm Calm - N/A   Clear
4:40 PM 29.8 °F - -12.1 °F 16% 30.37 in 10.0 mi Calm Calm - N/A   Clear
5:00 PM 29.7 °F 26.1 °F -12.3 °F 16% 30.37 in 10.0 mi SW 3.5 mph - N/A   Clear
5:20 PM 29.5 °F - -13.5 °F 15% 30.38 in 10.0 mi Calm Calm - N/A   Clear
5:40 PM 28.9 °F 22.8 °F -10.1 °F 18% 30.38 in 10.0 mi East 5.8 mph - N/A   Clear
6:00 PM 26.4 °F 20.9 °F -2.7 °F 28% 30.38 in 10.0 mi ESE 4.6 mph - N/A   Clear
6:20 PM 25.5 °F 17.8 °F -2.0 °F 30% 30.38 in 10.0 mi ESE 6.9 mph - N/A   Clear
6:40 PM 24.8 °F 16.9 °F -3.3 °F 29% 30.38 in 10.0 mi East 6.9 mph - N/A   Clear
7:00 PM 24.4 °F 18.6 °F -3.5 °F 30% 30.38 in 10.0 mi East 4.6 mph - N/A   Clear
7:20 PM 23.9 °F 16.8 °F -3.3 °F 31% 30.38 in 10.0 mi ESE 5.8 mph - N/A   Clear
7:40 PM 23.5 °F 19.1 °F -3.3 °F 31% 30.39 in 10.0 mi ESE 3.5 mph - N/A   Clear
8:00 PM 23.4 °F - -2.4 °F 33% 30.39 in 10.0 mi Calm Calm - N/A   Clear
8:20 PM 23.0 °F - -2.2 °F 33% 30.39 in 10.0 mi Calm Calm - N/A   Clear
8:40 PM 22.6 °F - -1.8 °F 34% 30.39 in 10.0 mi Calm Calm - N/A   Clear
9:05 PM 22.6 °F - -1.3 °F 35% 30.39 in 10.0 mi Calm Calm - N/A   Clear
9:25 PM 22.5 °F - -0.8 °F 36% 30.39 in 10.0 mi Calm Calm - N/A   Clear
9:45 PM 22.3 °F - -1.1 °F 36% 30.39 in 10.0 mi Calm Calm - N/A   Clear
10:05 PM 21.7 °F - 0.1 °F 39% 30.40 in 10.0 mi Calm Calm - N/A   Clear
10:25 PM 19.9 °F - 4.8 °F 52% 30.40 in 10.0 mi Calm Calm - N/A   Clear
10:45 PM 20.1 °F - 4.8 °F 52% 30.40 in 10.0 mi Calm Calm - N/A   Clear
11:05 PM 19.8 °F - 5.9 °F 55% 30.40 in 10.0 mi Calm Calm - N/A   Clear
11:25 PM 19.9 °F - 6.8 °F 57% 30.40 in 10.0 mi Calm Calm - N/A   Clear
11:45 PM 19.6 °F - 9.1 °F 64% 30.40 in 10.0 mi Calm Calm - N/A   Clear